Location: Overspoor
(51.4747°N, 5.6641°E)
Time: 05:38:32
(UTC+02:00)

OTV 5 (USA 277) - Visible Passes

Search period start: 19 August 2018 00:00
Search period end: 29 August 2018 00:00
Orbit: 316 x 318 km, 54.5° (Epoch: 18 August)

Date Brightness Start Highest point End Pass type
(mag) Time Alt. Az. Time Alt. Az. Time Alt. Az.
19 Aug ? 22:49:48 10° WSW 22:52:31 72° SSE 22:52:42 67° ESE visible
20 Aug ? 21:30:38 10° SSW 21:32:57 25° SE 21:35:17 10° E visible
20 Aug ? 23:04:23 10° WSW 23:07:06 66° NNW 23:07:22 60° NNE visible
21 Aug ? 21:44:44 10° SW 21:47:24 51° SSE 21:50:03 10° ENE visible
21 Aug ? 23:19:07 10° W 23:21:40 46° NNW 23:21:40 46° NNW visible
22 Aug ? 21:59:13 10° WSW 22:01:57 85° NNW 22:04:40 10° ENE visible
22 Aug ? 23:33:51 10° WNW 23:35:46 33° NW 23:35:46 33° NW visible
23 Aug ? 22:13:53 10° W 22:16:34 54° NNW 22:18:53 13° ENE visible
23 Aug ? 23:48:32 10° WNW 23:49:45 22° NW 23:49:45 22° NW visible
24 Aug ? 22:28:38 10° W 22:31:15 42° N 22:32:48 20° ENE visible
25 Aug ? 00:03:09 10° WNW 00:03:40 14° WNW 00:03:40 14° WNW visible
25 Aug ? 21:08:42 10° WSW 21:11:24 66° NNW 21:14:07 10° ENE visible
25 Aug ? 22:43:21 10° WNW 22:45:58 40° N 22:46:39 33° NE visible
26 Aug ? 21:23:25 10° W 21:26:03 46° N 21:28:43 10° ENE visible
26 Aug ? 22:58:00 10° WNW 23:00:29 46° N 23:00:29 46° N visible
27 Aug ? 21:38:09 10° WNW 21:40:45 40° N 21:43:23 10° ENE visible
27 Aug ? 23:12:36 10° WNW 23:14:18 33° WNW 23:14:18 33° WNW visible
28 Aug ? 21:52:50 10° WNW 21:55:28 43° N 21:57:16 17° ENE visible
28 Aug ? 23:27:11 10° WNW 23:28:07 19° WNW 23:28:07 19° WNW visible
